Tracking 19800 objects as of 24-Jul-2019
HD Live streaming from Space Station
objects crossing your sky now

FLOCK 2K 05

Track FLOCK 2K 05 now!
10-day predictions
FLOCK 2K 05 is classified as:


NORAD ID: 42864
Int'l Code: 2017-042AR
Perigee: 443.8 km
Apogee: 459.2 km
Inclination: 96.9 °
Period: 93.5 minutes
Semi major axis: 6822 km
RCS: Unknown
Launch date: July 14, 2017
Source: United States (US)
Launch site: TYURATAM MISSILE AND SPACE COMPLEX (TTMTR)
aabbcc
Your satellite tracking list
Your tracking list is empty




NASA's NSSDC Master Catalog

Two Line Element Set (TLE):
1 42864U 17042AR  19204.73943029 +.00003380 +00000-0 +84817-4 0  9997
2 42864 096.9355 085.9904 0011297 093.1016 267.1524 15.40597650113383
Source of the keplerian elements: AFSPC